Location: Carrières
(48.9495°N, 2.0407°E)
Time: 03:37:35
(UTC+00:00)

Vanguard 2 Rocket - Pass Details

Date: 18 April 2024
Orbit: 556 x 3304 km, 32.9° (Epoch: 17 May)

Event Time Altitude Azimuth Distance (km) Brightness Sun altitude
Rises 00:48:45 0° 258° (WSW) 7,146 11.2 -28.8°
Reaches altitude 10° 00:53:44 10° 253° (WSW) 6,231 10.8 -28.5°
Maximum altitude 01:12:00 45° 190° (S) 3,774 9.5 -27.5°
Drops below altitude 10° 01:26:18 10° 124° (SE) 4,956 10.5 -26.5°
Sets 01:29:45 0° 118° (ESE) 5,635 10.9 -26.3°
